Regional Weather Roundup
Issued by NWS

Home | Current Version | Previous Version | Graphics & Text | Print | Product List | Glossary On
Versions: 1 2 3 4 5 6 7 8 9 10 11 12 13 14 15 16 17 18 19 20 21 22 23 24 25 26 27 28 29 30 31 32 33 34 35 36 37 38 39 40 41 42 43 44 45 46 47 48 49 50
000
ASUS43 KDTX 230301
RWRMI
MICHIGAN HOURLY REGIONAL WEATHER ROUNDUP
NATIONAL WEATHER SERVICE DETROIT/PONTIAC MI
1100 PM EDT MON MAY 22 2017

NOTE: "FAIR" INDICATES FEW OR NO CLOUDS BELOW 12,000 FEET WITH NO
SIGNIFICANT WEATHER AND/OR OBSTRUCTION TO VISIBILITY.

MIZ047>049-052>055-059>063-066>070-074>076-081>083-230400-
SOUTHEAST LOWER MICHIGAN

CITY           SKY/WX    TMP DP  RH WIND       PRES   REMARKS
ADRIAN         MOCLDY    58  48  69 SW5       29.97F
ALMA           CLOUDY    57  49  72 NE3       29.91S
ANN ARBOR      PTCLDY    56  48  74 S5        29.96F
BAD AXE        LGT RAIN  58  47  67 SW5       29.94S
CARO           CLOUDY    57  49  74 CALM      29.92F
DETROIT CITY   CLEAR     61  47  59 SW5       29.96F
DETROIT        MOCLDY    60  49  66 SW3       29.97F
FLINT          PTCLDY    59  48  67 S6        29.93F
GROSSE ILE     PTCLDY    62  47  56 SW3       29.95F
HILLSDALE      CLEAR     57  46  67 S5        29.96F
HOWELL         MOCLDY    60  45  57 S7        29.95S

CITY           SKY/WX    TMP DP  RH WIND       PRES   REMARKS
JACKSON        CLOUDY    62  47  57 S10       29.94F
LAMBERTVILLE   PTCLDY    56  49  78 CALM      29.97F
LANSING        CLOUDY    63  46  54 S10       29.93F
LAPEER         FAIR      58  46  64 S5        29.95S
MASON          MOCLDY    62  49  63 S3        29.94S
MONROE         CLEAR     58  47  67 CALM      29.95F
MT. CLEMENS    PTCLDY    58  48  70 SW5       29.95S
PONTIAC        MOCLDY    60  47  61 S5        29.95F
PORT HOPE        N/A     60  46  59 CALM      29.91S
PORT HURON     CLEAR     52  48  87 CALM      29.96F
TRI CITIES     CLOUDY    60  50  69 S5        29.91F
MIDLAND        CLOUDY    58  49  73 CALM      29.90F
TROY           CLEAR     63  44  49 S6        29.97F
SAGINAW HB     CLOUDY    61  45  55 SE3       29.91F
$$
MIZ043>046-050>051-056>058-064>065-071>073-077>080-230400-
SOUTHWEST LOWER MICHIGAN

CITY           SKY/WX    TMP DP  RH WIND       PRES   REMARKS
BATTLE CREEK   CLOUDY    63  49  60 S13       29.93F
BENTON HARBOR  CLOUDY    64  49  57 SW20G28   29.93R
BIG RAPIDS     CLOUDY    54  49  85 SW7       29.88F
COLDWATER      CLOUDY    62  47  58 S3        29.95F
FREMONT        LGT RAIN  55  52  89 NW7       29.89R
HOLLAND        CLOUDY    64  49  57 SW17G23   29.91R
GRAND RAPIDS   MOCLDY    63  48  58 S12       29.90S
IONIA          FAIR      62  47  57 S9        29.89F
KALAMAZOO      PTCLDY    63  46  54 S8        29.93F
LUDINGTON      CLOUDY    54  49  83 CALM      29.86S
MARSHALL       PTCLDY    64  48  56 S6        29.93F
MOUNT PLEASANT CLOUDY    56  51  84 CALM      29.89F
MUSKEGON       CLOUDY    60  47  61 SW18G25   29.88S
SOUTH HAVEN    CLOUDY    65  50  59 SW14G25   29.92S
$$
MIZ016>042-230400-
NORTHERN LOWER MICHIGAN

CITY           SKY/WX    TMP DP  RH WIND       PRES   REMARKS
ALPENA         MOCLDY    50  46  86 SE5       29.87S
BEAVER ISLAND  MOCLDY    46  45  95 CALM      29.84S
BELLAIRE       CLOUDY    55  45  68 CALM      29.87S
CADILLAC       CLOUDY    53  47  80 SW3       29.87S
CHARLEVOIX     LGT RAIN  50  49  94 W8        29.89S
FRANKFORT      CLOUDY    54  44  68 W5        29.88S
GAYLORD        CLOUDY    54  44  69 VRB5      29.88R
GRAYLING       PTCLDY    56  45  65 SW6       29.88R
HARBOR SPRINGS CLOUDY    50  50 100 E3        29.87S
HOUGHTON LAKE  MOCLDY    56  46  69 SW10      29.88S
MANISTEE       CLOUDY    55  47  74 CALM      29.85R
OSCODA         CLEAR     53  42  66 SW7       29.89S
PELLSTON       CLOUDY    51  48  89 SE6       29.86F
ROGERS CITY    MIX PCPN  46  41  82 N8        29.91R
TRAVERSE CITY  CLOUDY    58  46  64 N7        29.86R
$$
MIZ007>008-015-230400-
EASTERN UPPER MICHIGAN

CITY           SKY/WX    TMP DP  RH WIND       PRES   REMARKS
KINROSS        CLOUDY    48  46  93 E3        29.86S
MACKINAC ISLAN MOCLDY    48  48 100 S7        29.85F
NEWBERRY       CLOUDY    46  45  97 CALM      29.83S
S. S. MARIE    CLOUDY    49  47  93 E3        29.85S
MUNISING         N/A     45  44  97 CALM      29.84S
$$
MIZ004>006-011>014-085-230400-
CENTRAL UPPER MICHIGAN

CITY           SKY/WX    TMP DP  RH WIND       PRES   REMARKS
MANISTIQUE     CLEAR     43  40  89 CALM      29.83S
ESCANABA       FOG       45  45 100 CALM      29.85S VSB 1/2
MENOMINEE      PTCLDY    48  46  93 CALM      29.86R
SAWYER-GWINN   PTCLDY    44  42  90 CALM      29.85S
$$
MIZ001>003-009>011-084-230400-
WESTERN UPPER MICHIGAN

CITY           SKY/WX    TMP DP  RH WIND       PRES   REMARKS
IRON MOUNTAIN  CLEAR     43  38  82 CALM      29.84R
HOUGHTON       CLOUDY    49  42  77 W7        29.82R
COPPER HARBOR    N/A     49  43  80 SW6       29.81R
IRONWOOD       CLOUDY    50  44  80 S5        29.84S
$$

ABBREVIATIONS USED IN REMARKS
   TC - TEMPERATURE IN CELSIUS
  WCI - WIND CHILL INDEX
   HX - HEAT INDEX
  VSB - VISIBILITY





USA.gov is the U.S. government's official web portal to all federal, state and local government web resources and services.